TimeCET,TemperatureF,Dew PointF,Humidity,Sea Level PressureIn,VisibilityMPH,Wind Direction,Wind SpeedMPH,Gust SpeedMPH,PrecipitationIn,Events,Conditions,WindDirDegrees,DateUTC
12:00 AM,41.0,39.2,93,30.39,6.2,Calm,Calm,-,N/A,,Partly Cloudy,0,2012-12-30 23:00:00
12:30 AM,41.0,37.4,87,30.39,6.2,NE,1.2,-,N/A,,Partly Cloudy,40,2012-12-30 23:30:00
1:00 AM,39,36,84,30.41,11,East,2.3,,,,Scattered Clouds,100,2012-12-31 00:00:00
1:00 AM,41.0,39.2,93,30.39,6.2,Calm,Calm,-,N/A,,Partly Cloudy,0,2012-12-31 00:00:00
1:30 AM,39.2,37.4,93,30.39,6.2,ENE,1.2,-,N/A,,Partly Cloudy,60,2012-12-31 00:30:00
2:00 AM,39.2,37.4,93,30.39,6.2,NE,1.2,-,N/A,,Partly Cloudy,50,2012-12-31 01:00:00
2:30 AM,39.2,37.4,93,30.39,6.2,NE,1.2,-,N/A,,Partly Cloudy,50,2012-12-31 01:30:00
3:00 AM,39.2,37.4,93,30.39,6.2,East,1.2,-,N/A,,Partly Cloudy,80,2012-12-31 02:00:00
3:30 AM,37.4,37.4,100,30.39,6.2,NE,1.2,-,N/A,,Partly Cloudy,50,2012-12-31 02:30:00
4:00 AM,39.2,37.4,93,30.39,6.2,Variable,1.2,-,N/A,,Partly Cloudy,0,2012-12-31 03:00:00
4:30 AM,39.2,37.4,93,30.36,6.2,Calm,Calm,-,N/A,,Partly Cloudy,0,2012-12-31 03:30:00
5:00 AM,37.4,35.6,93,30.36,6.2,NE,1.2,-,N/A,,Partly Cloudy,50,2012-12-31 04:00:00
5:30 AM,37.4,35.6,93,30.36,6.2,NE,1.2,-,N/A,,Partly Cloudy,50,2012-12-31 04:30:00
6:00 AM,37.4,37.4,100,30.36,6.2,Calm,Calm,-,N/A,,Partly Cloudy,0,2012-12-31 05:00:00
6:30 AM,35.6,35.6,100,30.36,6.2,Calm,Calm,-,N/A,,Partly Cloudy,0,2012-12-31 05:30:00
7:00 AM,35,33,89,30.38,12,Calm,Calm,,,,Scattered Clouds,,2012-12-31 06:00:00
7:00 AM,35.6,35.6,100,30.36,6.2,Calm,Calm,-,N/A,,Partly Cloudy,0,2012-12-31 06:00:00
7:30 AM,37.4,35.6,93,30.36,-9999.0,Calm,Calm,-,N/A,,Clear,0,2012-12-31 06:30:00
8:00 AM,35.6,35.6,100,30.36,6.2,NE,1.2,-,N/A,,Partly Cloudy,40,2012-12-31 07:00:00
8:30 AM,35.6,35.6,100,30.36,6.2,NNE,1.2,-,N/A,,Partly Cloudy,20,2012-12-31 07:30:00
9:00 AM,37.4,37.4,100,30.36,6.2,Calm,Calm,-,N/A,,Partly Cloudy,0,2012-12-31 08:00:00
9:30 AM,42.8,41.0,93,30.36,6.2,Calm,Calm,-,N/A,,Partly Cloudy,0,2012-12-31 08:30:00
10:00 AM,46.4,44.6,93,30.36,6.2,Calm,Calm,-,N/A,,Partly Cloudy,0,2012-12-31 09:00:00
10:30 AM,50.0,48.2,94,30.36,6.2,Calm,Calm,-,N/A,,Partly Cloudy,0,2012-12-31 09:30:00
11:00 AM,53.6,48.2,82,30.36,6.2,Calm,Calm,-,N/A,,Partly Cloudy,0,2012-12-31 10:00:00
11:30 AM,57.2,48.2,72,30.36,6.2,Variable,1.2,-,N/A,,Partly Cloudy,0,2012-12-31 10:30:00
12:00 PM,59.0,48.2,67,30.36,6.2,WSW,3.5,-,N/A,,Partly Cloudy,250,2012-12-31 11:00:00
12:30 PM,59.0,50.0,72,30.33,6.2,WSW,5.8,-,N/A,,Partly Cloudy,250,2012-12-31 11:30:00
1:00 PM,59.0,48.2,67,30.30,6.2,SW,9.2,-,N/A,,Partly Cloudy,230,2012-12-31 12:00:00
1:30 PM,59.0,46.4,63,30.30,6.2,SW,11.5,-,N/A,,Partly Cloudy,230,2012-12-31 12:30:00
2:00 PM,59.0,44.6,59,30.27,6.2,SW,11.5,-,N/A,,Partly Cloudy,220,2012-12-31 13:00:00
2:30 PM,59.0,44.6,59,30.27,6.2,SW,10.4,-,N/A,,Partly Cloudy,230,2012-12-31 13:30:00
3:00 PM,59.0,44.6,59,30.24,6.2,SW,10.4,-,N/A,,Partly Cloudy,230,2012-12-31 14:00:00
3:30 PM,59.0,44.6,59,30.24,6.2,SW,10.4,-,N/A,,Partly Cloudy,230,2012-12-31 14:30:00
4:00 PM,59.0,46.4,63,30.24,6.2,SW,9.2,-,N/A,,Partly Cloudy,230,2012-12-31 15:00:00
5:00 PM,57.2,48.2,72,30.21,6.2,SW,8.1,-,N/A,,Partly Cloudy,230,2012-12-31 16:00:00
5:30 PM,57.2,48.2,72,30.21,6.2,SW,11.5,-,N/A,,Scattered Clouds,230,2012-12-31 16:30:00
6:00 PM,57.2,48.2,72,30.21,6.2,SW,9.2,-,N/A,,Scattered Clouds,230,2012-12-31 17:00:00
6:30 PM,57.2,48.2,72,30.21,6.2,SW,8.1,-,N/A,,Scattered Clouds,220,2012-12-31 17:30:00
7:00 PM,56,46,60,30.21,16,SW,11.5,,,,Mostly Cloudy,220,2012-12-31 18:00:00
7:00 PM,57.2,50.0,77,30.18,6.2,SW,8.1,-,N/A,,Scattered Clouds,220,2012-12-31 18:00:00
7:30 PM,57.2,50.0,77,30.18,6.2,SSW,10.4,-,N/A,,Scattered Clouds,210,2012-12-31 18:30:00
8:00 PM,57.2,50.0,77,30.18,6.2,SSW,12.7,-,N/A,,Scattered Clouds,210,2012-12-31 19:00:00
8:30 PM,57.2,50.0,77,30.18,6.2,SW,10.4,-,N/A,,Scattered Clouds,220,2012-12-31 19:30:00
9:00 PM,57.2,50.0,77,30.15,6.2,SSW,12.7,-,N/A,,Scattered Clouds,210,2012-12-31 20:00:00
9:30 PM,57.2,50.0,77,30.15,6.2,SW,11.5,-,N/A,,Scattered Clouds,220,2012-12-31 20:30:00
10:00 PM,57.2,51.8,82,30.15,6.2,SSW,12.7,-,N/A,,Partly Cloudy,210,2012-12-31 21:00:00
10:30 PM,57.2,50.0,77,30.15,6.2,SSW,11.5,-,N/A,,Partly Cloudy,210,2012-12-31 21:30:00
11:00 PM,57.2,50.0,77,30.15,6.2,SW,15.0,-,N/A,,Partly Cloudy,220,2012-12-31 22:00:00
11:30 PM,57.2,50.0,77,30.12,6.2,SSW,15.0,-,N/A,,Scattered Clouds,210,2012-12-31 22:30:00